[[{"header":{"parameterUnit":"m.s-1","parameterCategory":1,"la1":30.2991,"la2":30.254,"lo1":-89.0895,"lo2":-89.0444,"dy":0.0017,"dx":0.0017,"nx":28,"ny":28,"refTime":"2024-04-05T03:00:00:Z","depth":0,"parameterNumber":2,"parameterNumberName":"U-component_of_WINDS"},"data":[0,0,0,0,0,0,0,0,0,0,0,0,0,0,0,0,0,0,0,0,0,0,0,0,0,0,0,0,0,0,0,0,0,0,0,0,0,0,0,0,0,0,0,0,0,0,0,0,0,0,0,0,0,0,0,0,0,0,1.8139,1.8139,0,1.8155,1.8156,1.8156,1.8122,1.8121,1.812,1.8118,1.8137,1.8138,1.814,0,0,0,0,0,0,0,0,0,0,0,0,0,1.8081,1.8083,1.8139,1.8139,1.8139,1.8155,1.8156,1.8156,1.8122,1.8121,1.8119,1.8118,1.8136,1.8138,1.814,0,0,0,0,0,0,0,0,0,0,0,0,0,1.8103,1.8083,1.8139,1.8124,1.8123,1.8155,1.8156,1.8156,1.8122,1.8121,1.8119,1.8117,1.8136,1.8138,1.814,1.8188,0,0,1.8147,1.8148,0,0,0,0,0,0,0,0,1.8102,1.8105,1.8126,1.8125,1.8124,1.8135,1.8142,1.8167,1.8123,1.8123,1.8118,1.8117,1.8138,1.814,1.8146,1.8189,1.8189,1.8148,1.8149,1.815,1.8151,0,0,0,0,0,0,0,1.81,1.8104,1.8145,1.8126,1.8125,1.8118,1.8119,1.8147,1.8139,1.8122,1.812,1.8122,1.8137,1.8144,1.8147,1.819,1.8147,1.8149,1.8151,1.8152,1.8275,1.8277,0,0,0,0,0,0,1.81,1.8103,1.8145,1.8146,1.8109,1.812,1.8122,1.8133,1.8139,1.8138,1.8124,1.8121,1.8141,1.8144,1.8147,1.8205,1.815,1.8152,1.8153,1.8273,1.8276,1.8278,0,0,0,0,0,0,1.8099,1.8104,1.8144,1.8124,1.8128,1.8123,1.8136,1.8134,1.8142,1.814,1.8139,1.8133,1.814,1.8144,1.8179,1.8205,1.8153,1.8155,1.8271,1.8274,1.8277,1.8319,0,0,0,0,0,0,1.8098,1.8104,1.8121,1.8124,1.813,1.8174,1.8138,1.8136,1.8146,1.8142,1.8148,1.8147,1.8139,1.8175,1.8181,1.8207,1.8157,1.8269,1.8272,1.8276,1.8315,1.8323,1.833,0,0,0,0,0,1.8096,1.8132,1.8122,1.8127,1.815,1.8176,1.8179,1.8168,1.8148,1.8165,1.8165,1.8147,1.8201,1.8179,1.8185,1.8212,1.8267,1.8271,1.8275,1.8312,1.8322,1.833,0,0,0,0,0,0,1.8131,1.8132,1.8121,1.8159,1.8168,1.817,1.8191,1.8178,1.8192,1.8188,1.8175,1.8177,1.8215,1.8217,1.8192,1.826,1.8231,1.8237,1.8257,1.8266,1.8273,1.8271,1.8159,0,0,0,0,0,1.8143,1.8163,1.8163,1.8197,1.8202,1.8196,1.8207,1.8198,1.8207,1.821,1.8212,1.8221,1.8241,1.8254,1.8271,1.8316,1.8318,1.8338,1.8346,1.8352,1.8356,1.8383,1.8393,1.8292,1.8292,1.8292,0,0,1.8169,1.8172,1.8185,1.8204,1.821,1.8232,1.8199,1.8223,1.824,1.8214,1.8246,1.8249,1.8259,1.83,1.8318,1.8303,1.8385,1.8357,1.8362,1.8363,1.8388,1.8398,1.8407,1.8295,1.8294,1.8294,0,0,1.8226,1.823,1.8259,1.8266,1.8276,1.8272,1.828,1.8285,1.8285,1.8318,1.83,1.832,1.8353,1.8362,1.8371,1.8436,1.8421,1.8442,1.8479,1.8506,1.8514,1.8521,1.8545,1.8554,1.8447,1.8447,1.8447,0,1.8256,1.8287,1.8276,1.8302,1.8312,1.8291,1.8322,1.8329,1.8344,1.8352,1.8336,1.8379,1.8384,1.8427,1.8444,1.8451,1.8461,1.8441,1.8513,1.852,1.8526,1.855,1.8559,1.845,1.845,1.8449,1.8449,0,1.8325,1.8348,1.8371,1.8386,1.8399,1.8427,1.8422,1.8437,1.8428,1.8427,1.8463,1.8469,1.8488,1.8498,1.849,1.8542,1.8533,1.8515,1.8485,1.8539,1.8561,1.8569,1.8454,1.8453,1.8452,1.8451,0,0,1.8402,1.8414,1.8422,1.843,1.8441,1.8458,1.8487,1.8506,1.852,1.8532,1.8557,1.8587,1.8572,1.8582,1.8575,1.8598,1.8652,1.8578,1.8578,1.8592,1.8712,1.8725,1.8735,1.8642,1.8644,1.8645,1.8711,0,1.846,1.8508,1.8501,1.8548,1.857,1.8552,1.8578,1.8588,1.8589,1.8609,1.861,1.8632,1.861,1.8616,1.8638,1.864,1.8675,1.8635,1.8666,1.8668,1.8664,1.8746,1.8759,1.8821,1.8719,1.8721,1.8722,0,1.8532,1.8548,1.8598,1.8607,1.8616,1.8639,1.8658,1.8677,1.8689,1.8689,1.8702,1.8692,1.8723,1.8693,1.8737,1.871,1.8723,1.8726,1.8729,1.8731,1.8697,1.8751,1.884,1.8849,1.8735,1.8734,1.8733,0,1.8585,1.8618,1.8653,1.866,1.8672,1.8689,1.8695,1.8706,1.8719,1.8736,1.8745,1.8766,1.8777,1.8794,1.8791,1.877,1.8836,1.8806,1.8838,1.8838,1.8851,1.8851,1.8944,1.886,1.886,1.886,1.886,0,1.8649,1.868,1.8677,1.8698,1.8734,1.8726,1.8762,1.8766,1.8777,1.88,1.8786,1.8809,1.8803,1.8826,1.8824,1.8861,1.8866,1.8868,1.8867,1.8869,1.8869,1.8876,1.8872,1.8862,1.8862,1.8861,1.8861,0,1.8712,1.8711,1.8748,1.8757,1.8761,1.8787,1.8795,1.8817,1.8818,1.8848,1.8854,1.8856,1.8883,1.8882,1.8911,1.891,1.8957,1.8951,1.8953,1.8951,1.8983,1.8981,1.9085,1.9099,1.9006,1.9007,1.9007,0,1.8753,1.8777,1.879,1.8805,1.8812,1.8835,1.8849,1.8844,1.886,1.8878,1.8898,1.8923,1.8943,1.8987,1.8992,1.9015,1.901,1.9045,1.9013,1.9016,1.9011,1.901,1.9013,1.9051,1.9052,1.9053,1.9054,0,1.8826,1.8825,1.8846,1.8867,1.8884,1.8901,1.8916,1.8929,1.8926,1.8944,1.8971,1.8987,1.9019,1.9045,1.9068,1.9076,1.9065,1.9064,1.9073,1.9075,1.9075,1.9076,1.897,1.9061,1.906,1.906,1.9059,1.9059,1.888,1.8901,1.8914,1.8938,1.895,1.8965,1.8986,1.8991,1.9013,1.9038,1.9035,1.9066,1.9081,1.9112,1.9122,1.9148,1.9135,1.9147,1.9151,1.9154,1.9158,1.9072,1.9152,1.9152,1.9151,1.9151,1.9151,0,1.8953,1.8961,1.8984,1.9006,1.9026,1.9014,1.9031,1.9049,1.9076,1.9091,1.9112,1.9145,1.9171,1.918,1.9206,1.9225,1.922,1.9232,1.923,1.9232,1.9167,1.9157,1.9235,1.9235,1.9235,1.9235,1.9235,1.9235,1.8993,1.9029,1.9031,1.9074,1.9082,1.9112,1.9123,1.9138,1.915,1.9188,1.921,1.9215,1.9229,1.9256,1.9281,1.9283,1.9293,1.9307,1.9307,1.9245,1.9237,1.9229,1.9219,1.9309,1.9309,1.937,1.9371,1.9371]},{"header":{"parameterUnit":"m.s-1","parameterCategory":1,"la1":30.2991,"la2":30.254,"lo1":-89.0895,"lo2":-89.0444,"dy":0.0017,"dx":0.0017,"nx":28,"ny":28,"refTime":"2024-04-05T03:00:00:Z","depth":0,"parameterNumber":3,"parameterNumberName":"V-component_of_WINDS"},"data":[0,0,0,0,0,0,0,0,0,0,0,0,0,0,0,0,0,0,0,0,0,0,0,0,0,0,0,0,0,0,0,0,0,0,0,0,0,0,0,0,0,0,0,0,0,0,0,0,0,0,0,0,0,0,0,0,0,0,-1.0196,-1.0195,0,-1.0101,-1.01,-1.0099,-1.0131,-1.0133,-1.0135,-1.0137,-1.0034,-1.0029,-1.0025,0,0,0,0,0,0,0,0,0,0,0,0,0,-1.0398,-1.0394,-1.0196,-1.0195,-1.0193,-1.0101,-1.01,-1.0099,-1.0131,-1.0133,-1.0136,-1.0138,-1.0036,-1.003,-1.0024,0,0,0,0,0,0,0,0,0,0,0,0,0,-1.0307,-1.0393,-1.0196,-1.0199,-1.0198,-1.0102,-1.01,-1.0098,-1.013,-1.0133,-1.0137,-1.0139,-1.0037,-1.0031,-1.0024,-0.9917,0,0,-1.0002,-0.9999,0,0,0,0,0,0,0,0,-1.0312,-1.03,-1.0199,-1.0198,-1.0197,-1.0131,-1.0134,-1.0038,-1.0129,-1.0156,-1.0137,-1.0141,-1.0063,-1.0054,-1.003,-0.9913,-0.9908,-1.0001,-0.9997,-0.9994,-0.9992,0,0,0,0,0,0,0,-1.0318,-1.0304,-1.0158,-1.0198,-1.0196,-1.0202,-1.0193,-1.0115,-1.0093,-1.0154,-1.0156,-1.0145,-1.0063,-1.0036,-1.0027,-0.9907,-1.0002,-0.9995,-0.9991,-0.9988,-0.9696,-0.9692,0,0,0,0,0,0,-1.0326,-1.0309,-1.0161,-1.0155,-1.0264,-1.0196,-1.0186,-1.0149,-1.0094,-1.0089,-1.0142,-1.0146,-1.0047,-1.0036,-1.0024,-0.9894,-0.9994,-0.9988,-0.9984,-0.9699,-0.9695,-0.9691,0,0,0,0,0,0,-1.033,-1.0313,-1.0165,-1.0233,-1.0214,-1.0189,-1.0148,-1.0146,-1.0119,-1.0085,-1.0081,-1.0119,-1.0049,-1.0034,-0.9944,-0.9891,-0.9984,-0.9978,-0.9704,-0.9698,-0.9693,-0.9635,0,0,0,0,0,0,-1.0336,-1.0314,-1.0275,-1.0232,-1.0211,-1.0088,-1.0145,-1.0142,-1.0107,-1.0112,-1.0062,-1.0057,-1.005,-0.9954,-0.9937,-0.9883,-0.9973,-0.9708,-0.9701,-0.9695,-0.9641,-0.9628,-0.9617,0,0,0,0,0,-1.0343,-1.0261,-1.0273,-1.0255,-1.0161,-1.0085,-1.0073,-1.0068,-1.0103,-1.0062,-1.0041,-1.0058,-0.9901,-0.9945,-0.9925,-0.9869,-0.9711,-0.9703,-0.9695,-0.9647,-0.9631,-0.9617,0,0,0,0,0,0,-1.0296,-1.0255,-1.0268,-1.017,-1.0131,-1.0091,-1.0039,-1.0052,-1.0001,-1.0007,-1.0002,-0.9991,-0.9898,-0.9875,-0.9925,-0.9762,-0.9811,-0.9798,-0.978,-0.9765,-0.9753,-0.9759,-0.9967,0,0,0,0,0,-1.0275,-1.0218,-1.0185,-1.0102,-1.0082,-1.0064,-1.003,-1.0031,-0.9989,-0.9972,-0.9944,-0.9901,-0.9842,-0.9803,-0.9746,-0.9639,-0.9627,-0.9591,-0.9579,-0.9569,-0.9557,-0.9497,-0.9479,-0.9665,-0.9665,-0.9665,0,0,-1.0229,-1.02,-1.0164,-1.0091,-1.0061,-1.0,-1.0049,-0.9983,-0.9937,-0.9961,-0.9874,-0.9852,-0.9804,-0.9705,-0.966,-0.9683,-0.9504,-0.9559,-0.9551,-0.9545,-0.9487,-0.9469,-0.9453,-0.966,-0.9661,-0.9662,0,0,-1.0114,-1.0088,-1.0015,-0.9984,-0.9939,-0.9927,-0.991,-0.9868,-0.9854,-0.9768,-0.9784,-0.9729,-0.9628,-0.9592,-0.9561,-0.9434,-0.9447,-0.9415,-0.935,-0.9292,-0.9277,-0.9264,-0.9216,-0.9199,-0.9405,-0.9404,-0.9404,0,-1.0062,-0.9973,-0.9975,-0.9907,-0.9873,-0.9896,-0.982,-0.9789,-0.9727,-0.9702,-0.973,-0.9603,-0.9572,-0.9463,-0.9432,-0.9407,-0.9385,-0.9419,-0.9279,-0.9266,-0.9254,-0.9208,-0.919,-0.9401,-0.9401,-0.9402,-0.9402,0,-0.991,-0.9848,-0.9794,-0.9735,-0.9696,-0.9625,-0.9613,-0.9573,-0.9577,-0.9563,-0.9473,-0.9438,-0.9374,-0.9349,-0.9352,-0.924,-0.9256,-0.9282,-0.9329,-0.9232,-0.9189,-0.9172,-0.9395,-0.9397,-0.9398,-0.9399,0,0,-0.976,-0.9705,-0.9684,-0.9657,-0.961,-0.956,-0.949,-0.9429,-0.9393,-0.935,-0.9289,-0.9203,-0.9227,-0.9191,-0.919,-0.9139,-0.9037,-0.9171,-0.917,-0.9145,-0.8909,-0.8888,-0.8868,-0.9048,-0.9045,-0.9042,-0.8913,0,-0.9639,-0.9517,-0.9516,-0.9402,-0.9343,-0.9364,-0.9302,-0.9264,-0.9249,-0.9195,-0.9178,-0.9116,-0.9153,-0.9132,-0.9083,-0.906,-0.899,-0.907,-0.8987,-0.8984,-0.8995,-0.8845,-0.8822,-0.8702,-0.8896,-0.8893,-0.8891,0,-0.9481,-0.9434,-0.9315,-0.9275,-0.925,-0.9194,-0.9138,-0.9088,-0.9046,-0.9038,-0.8999,-0.9006,-0.8932,-0.8985,-0.888,-0.8935,-0.8902,-0.8886,-0.8881,-0.887,-0.8929,-0.8827,-0.8663,-0.8644,-0.8865,-0.8867,-0.8869,0,-0.938,-0.9287,-0.9203,-0.918,-0.9132,-0.9092,-0.907,-0.9031,-0.8995,-0.8946,-0.8921,-0.8864,-0.8831,-0.8786,-0.8776,-0.8816,-0.8671,-0.8724,-0.8659,-0.8659,-0.8625,-0.8626,-0.845,-0.8609,-0.8609,-0.861,-0.861,0,-0.9243,-0.9168,-0.9157,-0.9105,-0.9021,-0.9021,-0.8937,-0.8918,-0.8884,-0.8827,-0.8842,-0.8787,-0.878,-0.8723,-0.8716,-0.8629,-0.8615,-0.8604,-0.8602,-0.8601,-0.8602,-0.8576,-0.8583,-0.8605,-0.8606,-0.8607,-0.8608,0,-0.9114,-0.9104,-0.9014,-0.8977,-0.8966,-0.8905,-0.8872,-0.8821,-0.8809,-0.8736,-0.8719,-0.8698,-0.8632,-0.8619,-0.8541,-0.8536,-0.8431,-0.844,-0.8446,-0.8446,-0.8381,-0.8386,-0.8179,-0.815,-0.8331,-0.833,-0.8328,0,-0.9025,-0.8968,-0.8926,-0.889,-0.8866,-0.8808,-0.8771,-0.8769,-0.873,-0.8677,-0.8632,-0.8569,-0.8517,-0.841,-0.8386,-0.8326,-0.8331,-0.8263,-0.8322,-0.8321,-0.8326,-0.8328,-0.8321,-0.825,-0.8248,-0.8246,-0.8245,0,-0.8868,-0.8866,-0.8814,-0.8759,-0.8716,-0.8673,-0.8632,-0.8601,-0.8593,-0.8548,-0.8482,-0.8442,-0.8363,-0.8298,-0.8238,-0.8213,-0.8226,-0.8228,-0.8209,-0.8205,-0.8209,-0.8203,-0.8411,-0.8231,-0.8233,-0.8234,-0.8234,-0.8235,-0.8754,-0.8704,-0.8666,-0.8607,-0.8577,-0.8538,-0.8488,-0.847,-0.8415,-0.8352,-0.8354,-0.828,-0.8239,-0.816,-0.8132,-0.8073,-0.8094,-0.8068,-0.8061,-0.8053,-0.8046,-0.8222,-0.8062,-0.8063,-0.8063,-0.8064,-0.8064,0,-0.8594,-0.8572,-0.8518,-0.8461,-0.8414,-0.8434,-0.839,-0.8348,-0.8284,-0.8246,-0.8195,-0.8118,-0.8056,-0.8028,-0.7966,-0.7924,-0.7929,-0.7908,-0.7909,-0.7902,-0.8032,-0.8053,-0.7905,-0.7905,-0.7905,-0.7905,-0.7905,-0.7906,-0.8506,-0.8421,-0.8415,-0.8315,-0.8293,-0.8222,-0.8195,-0.8159,-0.8128,-0.8042,-0.7991,-0.7974,-0.7939,-0.7875,-0.7818,-0.7811,-0.7786,-0.7762,-0.7757,-0.7878,-0.7894,-0.7909,-0.7928,-0.7757,-0.7757,-0.7633,-0.7632,-0.7631]}]]